Location: Hamayl? Da??
(36.7028°N, 30.1716°E)
Time: 01:00:11
(UTC+00:00)

Transit 2A Rocket - All Passes

Search period start: 23 May 2025 00:00
Search period end: 02 June 2025 00:00
Orbit: 591 x 895 km, 66.7° (Epoch: 22 May)

Date Brightness Start Highest point End Pass type
(mag) Time Alt. Az. Time Alt. Az. Time Alt. Az.
23 May - 07:16:09 10° S 07:19:59 29° ESE 07:23:43 10° NE daylight
23 May - 08:58:44 10° WSW 09:02:16 23° NW 09:05:45 10° N daylight
23 May - 16:00:33 10° NNE 16:03:21 15° NE 16:06:15 10° E daylight
23 May - 17:41:19 10° NW 17:46:00 63° WSW 17:51:07 10° SSE visible
24 May - 06:32:52 10° SE 06:35:05 14° ESE 06:37:15 10° ENE daylight
24 May - 08:12:45 10° SW 08:17:00 46° WNW 08:21:09 10° NNE daylight
24 May - 16:56:11 10° NNW 17:00:53 66° ENE 17:06:01 10° SE daylight
24 May - 18:40:44 10° W 18:42:48 13° WSW 18:44:56 10° SW visible
25 May - 07:27:25 10° SSW 07:31:51 82° ESE 07:36:09 10° NNE daylight
25 May - 16:11:23 10° N 16:15:40 34° ENE 16:20:18 10° ESE daylight
25 May - 17:53:56 10° NW 17:57:53 25° WSW 18:02:05 10° SSW visible
26 May - 06:42:43 10° S 06:46:48 37° ESE 06:50:47 10° NE daylight
26 May - 08:26:08 10° W 08:29:14 19° NW 08:32:19 10° N daylight
26 May - 15:26:58 10° N 15:30:20 19° NE 15:33:52 10° E daylight
26 May - 17:08:14 10° NW 17:12:52 50° WSW 17:17:54 10° S daylight
27 May - 05:58:55 10° SSE 06:01:52 18° ESE 06:04:45 10° ENE daylight
27 May - 07:39:51 10° SW 07:43:53 36° WNW 07:47:53 10° N daylight
27 May - 14:43:56 10° NE 14:44:50 10° NE 14:45:44 10° ENE daylight
27 May - 16:23:00 10° NNW 16:27:47 83° ENE 16:32:59 10° SSE daylight
28 May - 06:54:18 10° SSW 06:58:42 77° WNW 07:03:00 10° NNE daylight
28 May - 15:38:04 10° NNW 15:42:35 43° ENE 15:47:29 10° SE daylight
28 May - 17:21:09 10° WNW 17:24:42 20° WSW 17:28:28 10° SSW daylight
29 May - 06:09:23 10° S 06:13:37 48° ESE 06:17:46 10° NE daylight
29 May - 07:53:38 10° W 07:56:12 15° NW 07:58:45 10° NNW daylight
29 May - 14:53:29 10° N 14:57:18 23° NE 15:01:20 10° ESE daylight
29 May - 16:35:13 10° NW 16:39:43 39° WSW 16:44:35 10° S daylight
30 May - 05:25:12 10° SSE 05:28:39 23° ESE 05:32:01 10° ENE daylight
30 May - 07:07:01 10° WSW 07:10:48 28° NW 07:14:33 10° N daylight
30 May - 14:09:36 10° NNE 14:11:51 13° NE 14:14:09 10° ENE daylight
30 May - 15:49:50 10° NNW 15:54:38 79° WSW 15:59:53 10° SSE daylight
31 May - 04:43:06 10° ESE 04:43:46 10° ESE 04:44:25 10° E daylight
31 May - 06:21:14 10° SW 06:25:33 59° WNW 06:29:48 10° NNE daylight
31 May - 15:04:48 10° NNW 15:09:29 54° ENE 15:14:35 10° SE daylight
31 May - 16:48:29 10° WNW 16:51:30 16° WSW 16:54:39 10° SW daylight
01 Jun - 05:36:05 10° SSW 05:40:26 64° ESE 05:44:41 10° NE daylight
01 Jun - 07:21:23 10° WNW 07:23:10 12° NW 07:24:57 10° NNW daylight
01 Jun - 14:20:04 10° N 14:24:13 29° NE 14:28:40 10° ESE daylight
01 Jun - 16:02:14 10° NW 16:06:33 31° WSW 16:11:10 10° S daylight
